Location: B?lite?ti
(46.2833°N, 22.7333°E)
Time: 04:19:09
(UTC+00:00)

Aureole 2 Rocket - Pass Details

Date: 24 January 2021
Orbit: 285 x 374 km, 73.9° (Epoch: 26 February)

Event Time Altitude Azimuth Distance (km) Brightness Sun altitude
Rises 16:25:18 0° 214° (SSW) 2,231 6.8 -11.0°
Reaches altitude 10° 16:27:19 10° 220° (SW) 1,400 5.8 -11.3°
Maximum altitude 16:30:17 45° 295° (WNW) 545 3.2 -11.8°
Drops below altitude 10° 16:33:21 10° 10° (N) 1,445 4.7 -12.3°
Enters shadow 16:34:19 - 14° (NNE) 1,837 5.2 -12.5°
